Charles City, IA

5:40 AM CDT on April 23, 2018 (GMT -0500)
Charles City Municipal

Weather History for KCCY - May, 2012

Change the Weather History Date:

Saturday, May 12, 2012

  Actual Average Record
Temperature  
Mean Temperature 62 °F -  
Max Temperature 73 °F 69 °F 86 °F (1956)
Min Temperature 51 °F 46 °F 31 °F (1960)
Degree Days  
Heating Degree Days 3    
Growing Degree Days 12 (Base 50)    
Moisture  
Dew Point 23 °F    
Average Humidity 31    
Maximum Humidity 67    
Minimum Humidity 4    
Precipitation  
Precipitation 0.00 in - - ()
Sea Level Pressure  
Sea Level Pressure 30.29 in    
Wind  
Wind Speed 9 mph (NNE)    
Max Wind Speed 16 mph    
Max Gust Speed 21 mph    
Visibility 10 miles    
Events      
Averages and records for this station are not official NWS values.
T = Trace of Precipitation, MM = Missing Value Source: NWS Daily Summary

Daily Weather History Graph

Daily Weather History Graph

Search for Another Location

Airport or City:

Astronomy

May. 12, 2012 Rise Set
Actual Time 5:49 AM CDT 8:24 PM CDT
Civil Twilight 5:17 AM CDT 8:57 PM CDT
Nautical Twilight 4:36 AM CDT 9:37 PM CDT
Astronomical Twilight 3:50 AM CDT 10:23 PM CDT
Moon 1:35 AM CDT (5/12) 12:32 PM CDT (5/12)
Length of Visible Light 15h 39m
Length of Day
14h 34m
Waning Gibbous, 52% of the Moon is Illuminated
May 12
Waning Gibbous
May 12
Last Quarter
May 20
New
May 28
First Quarter
Jun 4
Full

Hourly Weather History & Observations

Time (CDT) Temp. Dew Point Humidity Pressure Visibility Wind Dir Wind Speed Gust Speed Precip Events Conditions
12:15 AM 57.2 °F 39.2 °F 51% 30.21 in 10.0 mi NNW 11.5 mph - N/A   Clear
12:35 AM 57.2 °F 39.2 °F 51% 30.22 in 10.0 mi NNW 11.5 mph - N/A   Clear
12:55 AM 57.2 °F 41.0 °F 55% 30.22 in 10.0 mi North 13.8 mph - N/A   Clear
1:15 AM 57.2 °F 41.0 °F 55% 30.22 in 10.0 mi North 11.5 mph - N/A   Clear
1:35 AM 57.2 °F 41.0 °F 55% 30.23 in 10.0 mi North 9.2 mph - N/A   Clear
1:55 AM 57.2 °F 41.0 °F 55% 30.23 in 10.0 mi North 9.2 mph - N/A   Clear
2:15 AM 57.2 °F 41.0 °F 55% 30.23 in 10.0 mi North 10.4 mph - N/A   Clear
2:35 AM 57.2 °F 41.0 °F 55% 30.23 in 10.0 mi North 8.1 mph - N/A   Scattered Clouds
2:55 AM 57.2 °F 39.2 °F 51% 30.24 in 10.0 mi North 10.4 mph - N/A   Mostly Cloudy
3:15 AM 57.2 °F 39.2 °F 51% 30.24 in 10.0 mi North 10.4 mph - N/A   Scattered Clouds
3:35 AM 55.4 °F 39.2 °F 54% 30.25 in 10.0 mi North 8.1 mph - N/A   Clear
3:55 AM 55.4 °F 39.2 °F 54% 30.26 in 10.0 mi North 6.9 mph - N/A   Clear
4:15 AM 55.4 °F 39.2 °F 54% 30.27 in 10.0 mi North 5.8 mph - N/A   Clear
4:35 AM 53.6 °F 41.0 °F 62% 30.27 in 10.0 mi NNW 5.8 mph - N/A   Clear
4:55 AM 53.6 °F 41.0 °F 62% 30.28 in 10.0 mi NNW 5.8 mph - N/A   Clear
5:15 AM 53.6 °F 41.0 °F 62% 30.29 in 10.0 mi NNW 5.8 mph - N/A   Clear
5:35 AM 53.6 °F 41.0 °F 62% 30.30 in 10.0 mi NNW 5.8 mph - N/A   Clear
5:55 AM 51.8 °F 41.0 °F 67% 30.31 in 10.0 mi NNW 6.9 mph - N/A   Clear
6:15 AM 51.8 °F 41.0 °F 67% 30.31 in 10.0 mi NNW 8.1 mph - N/A   Clear
6:35 AM 51.8 °F 41.0 °F 67% 30.32 in 10.0 mi NNW 6.9 mph - N/A   Clear
6:55 AM 53.6 °F 42.8 °F 67% 30.33 in 10.0 mi NNW 8.1 mph - N/A   Scattered Clouds
7:15 AM 55.4 °F 41.0 °F 58% 30.33 in 10.0 mi North 11.5 mph - N/A   Scattered Clouds
7:35 AM 55.4 °F 42.8 °F 63% 30.33 in 10.0 mi North 8.1 mph - N/A   Scattered Clouds
7:55 AM 57.2 °F 42.8 °F 59% 30.33 in 10.0 mi North 8.1 mph - N/A   Mostly Cloudy
8:35 AM 59.0 °F 42.8 °F 55% 30.34 in 10.0 mi North 6.9 mph - N/A   Mostly Cloudy
8:55 AM 60.8 °F 37.4 °F 42% 30.35 in 10.0 mi North 11.5 mph - N/A   Mostly Cloudy
9:15 AM 62.6 °F 35.6 °F 37% 30.34 in 10.0 mi North 10.4 mph - N/A   Mostly Cloudy
9:35 AM 64.4 °F 30.2 °F 28% 30.34 in 10.0 mi NNE 15.0 mph - N/A   Mostly Cloudy
9:55 AM 66.2 °F 30.2 °F 26% 30.34 in 10.0 mi NNE 15.0 mph - N/A   Scattered Clouds
10:55 AM 68.0 °F 19.4 °F 16% 30.34 in 10.0 mi NE 12.7 mph - N/A   Clear
11:15 AM 69.8 °F 17.6 °F 14% 30.34 in 10.0 mi NE 12.7 mph 18.4 mph N/A   Clear
11:35 AM 68.0 °F 15.8 °F 13% 30.33 in 10.0 mi East 8.1 mph - N/A   Clear
11:55 AM 69.8 °F 17.6 °F 14% 30.33 in 10.0 mi NE 11.5 mph 16.1 mph N/A   Clear
12:15 PM 68.0 °F 17.6 °F 15% 30.32 in 10.0 mi ENE 5.8 mph 17.3 mph N/A   Clear
12:35 PM 69.8 °F 14.0 °F 12% 30.31 in 10.0 mi NNE 10.4 mph 18.4 mph N/A   Clear
12:55 PM 69.8 °F 14.0 °F 12% 30.31 in 10.0 mi North 13.8 mph 18.4 mph N/A   Clear
1:15 PM 69.8 °F 12.2 °F 11% 30.30 in 10.0 mi North 16.1 mph 20.7 mph N/A   Clear
1:35 PM 69.8 °F 8.6 °F 9% 30.31 in 10.0 mi North 12.7 mph 18.4 mph N/A   Scattered Clouds
1:55 PM 69.8 °F 8.6 °F 9% 30.31 in 10.0 mi North 12.7 mph - N/A   Scattered Clouds
2:15 PM 71.6 °F 8.6 °F 9% 30.30 in 10.0 mi NNE 12.7 mph 18.4 mph N/A   Scattered Clouds
2:35 PM 71.6 °F 15.8 °F 12% 30.30 in 2.5 mi NE 8.1 mph - N/A   Haze
2:55 PM 71.6 °F 5.0 °F 7% 30.30 in 10.0 mi NNE 9.2 mph - N/A   Clear
3:15 PM 71.6 °F -5.8 °F 5% 30.29 in 10.0 mi North 10.4 mph 17.3 mph N/A   Clear
3:35 PM 71.6 °F -13.0 °F 4% 30.29 in 10.0 mi North 5.8 mph 10.4 mph N/A   Clear
3:55 PM 71.6 °F -22.0 °F 4% 30.29 in 10.0 mi NE 5.8 mph - N/A   Clear
4:15 PM 71.6 °F -22.0 °F 4% 30.28 in 10.0 mi NNE 5.8 mph 18.4 mph N/A   Clear
4:35 PM 71.6 °F -16.6 °F 4% 30.28 in 10.0 mi ENE 5.8 mph 9.2 mph N/A   Clear
4:55 PM 71.6 °F 3.2 °F 7% 30.27 in 7.0 mi North 5.8 mph - N/A   Clear
5:15 PM 73.4 °F -0.4 °F 5% 30.27 in 10.0 mi NE 6.9 mph - N/A   Clear
5:35 PM 73.4 °F 8.6 °F 8% 30.27 in 7.0 mi NNE 6.9 mph - N/A   Clear
5:55 PM 71.6 °F 3.2 °F 7% 30.27 in 10.0 mi NNE 10.4 mph - N/A   Clear
6:15 PM 71.6 °F -7.6 °F 4% 30.27 in 10.0 mi NNE 11.5 mph - N/A   Clear
6:35 PM 69.8 °F -5.8 °F 5% 30.26 in 10.0 mi NNE 9.2 mph - N/A   Clear
6:55 PM 71.6 °F 6.8 °F 8% 30.27 in 10.0 mi NNE 6.9 mph - N/A   Clear
7:15 PM 69.8 °F -0.4 °F 6% 30.26 in 10.0 mi NNE 10.4 mph - N/A   Clear
7:35 PM 68.0 °F 14.0 °F 12% 30.27 in 10.0 mi NNE 5.8 mph - N/A   Clear
7:55 PM 68.0 °F 14.0 °F 12% 30.27 in 7.0 mi NE 4.6 mph - N/A   Clear
8:15 PM 68.0 °F 17.6 °F 15% 30.27 in 7.0 mi ENE 3.5 mph - N/A   Clear
8:35 PM 66.2 °F 17.6 °F 15% 30.28 in 10.0 mi ENE 3.5 mph - N/A   Clear
8:55 PM 64.4 °F 19.4 °F 18% 30.28 in 10.0 mi NE 3.5 mph - N/A   Clear
9:15 PM 64.4 °F 19.4 °F 18% 30.28 in 10.0 mi NE 3.5 mph - N/A   Clear
9:35 PM 62.6 °F 19.4 °F 19% 30.29 in 10.0 mi NE 3.5 mph - N/A   Clear
9:55 PM 62.6 °F 17.6 °F 18% 30.29 in 10.0 mi NE 4.6 mph - N/A   Clear
10:15 PM 60.8 °F 23.0 °F 23% 30.29 in 10.0 mi NE 3.5 mph - N/A   Clear
10:35 PM 60.8 °F 24.8 °F 25% 30.29 in 10.0 mi NE 3.5 mph - N/A   Clear
10:55 PM 59.0 °F 28.4 °F 31% 30.29 in 10.0 mi NNE 4.6 mph - N/A   Clear
11:15 PM 59.0 °F 26.6 °F 29% 30.29 in 10.0 mi NNE 4.6 mph - N/A   Clear
11:35 PM 57.2 °F 30.2 °F 36% 30.29 in 10.0 mi North 5.8 mph - N/A   Clear
11:55 PM 55.4 °F 30.2 °F 38% 30.30 in 10.0 mi NNE 4.6 mph - N/A   Clear